This is the latest recevied weather packets stored in our database for station/object NO9B. If no packets are shown the sender has not sent any weather packets the latest 10 day(s).
| Time | Temp. | Humidity | Pressure | Rain* | Wind** | Luminosity | Snow |
|---|---|---|---|---|---|---|---|
| 1788137661 | 74° F | 90% | 761.5 mmHg | 0 in | - | 0 W/m² | - |
| 1788137360 | 74° F | 90% | 761.3 mmHg | 0 in | - | 0 W/m² | - |
| 1788137057 | 74° F | 90% | 761.5 mmHg | 0 in | - | 0 W/m² | - |
| 1788136758 | 74° F | 90% | 761.5 mmHg | 0 in | - | 0 W/m² | - |
| 1788136454 | 74° F | 90% | 761.2 mmHg | 0 in | - | 0 W/m² | - |
| 1788136153 | 74° F | 89% | 761.2 mmHg | 0 in | - | 1 W/m² | - |
| 1788135853 | 74° F | 89% | 761.2 mmHg | 0 in | - | 1 W/m² | - |
| 1788135548 | 74° F | 89% | 761.2 mmHg | 0 in | - | 2 W/m² | - |
| 1788135243 | 75° F | 89% | 761.4 mmHg | 0 in | - | 3 W/m² | - |
| 1788134941 | 75° F | 88% | 761.2 mmHg | 0 in | - | 7 W/m² | - |
| 1788134636 | 75° F | 88% | 761.1 mmHg | 0 in | - | 8 W/m² | - |
| 1788134334 | 75° F | 88% | 761.2 mmHg | 0 in | - | 6 W/m² | - |
| 1788134028 | 75° F | 87% | 761.2 mmHg | 0 in | - | 5 W/m² | - |
| 1788133724 | 75° F | 88% | 761.2 mmHg | 0 in | - | 6 W/m² | - |
| 1788133420 | 75° F | 88% | 760.9 mmHg | 0 in | - | 6 W/m² | - |
| 1788133115 | 75° F | 88% | 761.1 mmHg | 0 in | - | 7 W/m² | - |
| 1788132811 | 76° F | 87% | 761.1 mmHg | 0 in | - | 11 W/m² | - |
| 1788132506 | 76° F | 87% | 761.2 mmHg | 0 in | - | 16 W/m² | - |
| 1788132202 | 76° F | 87% | 761.3 mmHg | 0 in | - | 21 W/m² | - |
| 1788131898 | 76° F | 87% | 761.2 mmHg | 0 in | - | 24 W/m² | - |
| 1788131599 | 76° F | 87% | 761.2 mmHg | 0 in | - | 27 W/m² | - |
| 1788131293 | 76° F | 87% | 761.2 mmHg | 0 in | - | 22 W/m² | - |
| 1788130988 | 76° F | 87% | 761.2 mmHg | 0 in | - | 17 W/m² | - |
| 1788130688 | 76° F | 87% | 761.2 mmHg | 0 in | - | 23 W/m² | - |
| 1788130383 | 75° F | 87% | 761.1 mmHg | 0 in | - | 30 W/m² | - |
* Rain latest hour (hover to see other rain measurements)
** Current wind speed in m/s (hover to see current wind gust speed)